Printer-friendly version

IAU Minor Planet Center

Minor Planet Center

MPEC 2007-V62 : 2007 VT83

The following Minor Planet Electronic Circular may be linked-to from your own Web pages, but must not otherwise be redistributed electronically.


Read MPEC 2007-V61 Read MPEC 2007-V63


M.P.E.C. 2007-V62                                Issued 2007 Nov. 8, 13:49 UT

     The Minor Planet Electronic Circulars contain information on unusual
         minor planets and routine data on comets.  They are published
   on behalf of Commission 20 of the International Astronomical Union by the
          Minor Planet Center, Smithsonian Astrophysical Observatory,
                          Cambridge, MA 02138, U.S.A.

             Prepared using the Tamkin Foundation Computer Network

                              MPC@CFA.HARVARD.EDU
          URL http://www.cfa.harvard.edu/iau/mpc.html  ISSN 1523-6714

                                   2007 VT83

Observations:
     K07V83T* C2007 11 07.17037 00 23 22.59 +04 56 57.5          21.9 V EV062G96
     K07V83T  C2007 11 07.17591 00 23 23.71 +04 57 24.8          21.7 V EV062G96
     K07V83T  C2007 11 07.18141 00 23 24.79 +04 57 52.3          21.7 V EV062G96
     K07V83T  C2007 11 07.18699 00 23 25.94 +04 58 20.3          21.2 V EV062G96
     K07V83T  C2007 11 07.22240 00 23 33.03 +05 01 14.5          20.7 V EV062G96
     K07V83T  C2007 11 07.22306 00 23 33.14 +05 01 17.7          21.5 V EV062G96
     K07V83T  C2007 11 07.22371 00 23 33.28 +05 01 20.8          21.9 V EV062G96
     K07V83T  C2007 11 07.22436 00 23 33.39 +05 01 23.8          20.4 V EV062G96
     K07V83T HC2007 11 07.28907 00 23 46.54 +05 06 40.7                 EV062291
     K07V83T  C2007 11 07.29307 00 23 47.27 +05 07 02.1                 EV062291
     K07V83T HC2007 11 07.29679 00 23 47.99 +05 07 18.7                 EV062291
     K07V83T  C2007 11 07.31833 00 23 52.43 +05 09 03.5          22.1 V EV062G96
     K07V83T  C2007 11 07.31900 00 23 52.54 +05 09 06.5          21.1 V EV062G96
     K07V83T  C2007 11 07.31965 00 23 52.69 +05 09 09.7          22.1 V EV062G96
     K07V83T  C2007 11 08.18786 00 27 05.65 +06 17 29.7          20.7 V EV062G96
     K07V83T  C2007 11 08.18851 00 27 05.76 +06 17 34.8          21.7 V EV062G96
     K07V83T  C2007 11 08.18917 00 27 05.83 +06 17 36.9          21.3 V EV062G96
     K07V83T  C2007 11 08.18982 00 27 05.97 +06 17 40.4          20.4 V EV062G96

Observer details:
291 LPL/Spacewatch II.  Observer R. S. McMillan.  1.8-m f/2.7 reflector + CCD.
G96 Mt. Lemmon Survey.  Observers A. R. Gibbs, R. E. Hill.  Measurers
    E. C. Beshore, A. Boattini, G. J. Garradd, A. R. Gibbs, A. D. Grauer,
    R. E. Hill, R. A. Kowalski, S. M. Larson, R. H. McNaught.  1.5-m reflector
    + CCD.

Orbital elements:
2007 VT83                                                Earth MOID = 0.0373 AU
Epoch 2007 Oct. 27.0 TT = JDT 2454400.5                 MPC
M  35.22502              (2000.0)            P               Q
n   0.66433720     Peri.  289.64266     +0.84388809     +0.53131399
a   1.3007994      Node    38.36517     -0.43617958     +0.76032295
e   0.2947557      Incl.    6.89895     -0.31241040     +0.37365019
P   1.48           H   24.3           G   0.15           U   9
Residuals in seconds of arc
071107 G96  0.1-  0.2-    071107 G96  0.1+  0.0     071107 G96  0.2-  0.1-
071107 G96  0.0   0.3-    071107 G96  0.2-  0.2-    071107 G96  0.0   0.1-
071107 G96  0.3-  0.0     071107 291  1.0+  0.8-    071108 G96  0.5+  1.3-
071107 G96  0.2+  0.5+    071107 291  0.2-  1.1+    071108 G96  0.3+  0.9+
071107 G96  0.3+  0.2+    071107 291  0.8-  0.4-    071108 G96  0.5-  0.1-
071107 G96  0.1-  0.1+    071107 G96  0.2+  0.1+    071108 G96  0.3-  0.5+

Ephemeris:
2007 VT83                a,e,i = 1.30, 0.29, 7                   q = 0.9174
Date    TT    R. A. (2000) Decl.     Delta      r     Elong.  Phase     V
2007 11 06    00 18.79   +03 16.4    0.116    1.086   142.5    33.8    21.2
2007 11 07    00 22.72   +04 43.3    0.121    1.090   143.0    33.2    21.3
2007 11 08    00 26.42   +06 03.6    0.126    1.094   143.3    32.8    21.4
2007 11 09    00 29.91   +07 17.8    0.131    1.099   143.5    32.4    21.5
2007 11 10    00 33.24   +08 26.5    0.136    1.103   143.6    32.2    21.6
2007 11 11    00 36.40   +09 30.2    0.142    1.108   143.7    32.0    21.6
2007 11 12    00 39.42   +10 29.3    0.148    1.112   143.7    31.8    21.7
2007 11 13    00 42.31   +11 24.4    0.153    1.117   143.6    31.7    21.8
2007 11 14    00 45.09   +12 15.6    0.159    1.121   143.5    31.7    21.9
2007 11 15    00 47.77   +13 03.4    0.165    1.126   143.3    31.7    22.0
2007 11 16    00 50.36   +13 48.0    0.171    1.131   143.1    31.7    22.1

Timothy B. Spahr             (C) Copyright 2007 MPC           M.P.E.C. 2007-V62

Read MPEC 2007-V61 Read MPEC 2007-V63


Our Web policy. Index to the CBAT/MPC/ICQ pages.


Valid HTML 4.01!